Simultaneous Nadir Overpasses (SNOs) Predictions

Prediction of SNOs between GOES-17 and METOP-C Satellite Orbit:

Table of predicted SNOs for the next 14.0 days since TLE Epoch: 11/4/2022
Index Date Time (GOES-17) GOES-17 Lat,Lon METOP-C Lat,Lon Distance(km) Time Diff (sec)
1 11/05/2022 06:54:39 0.04,-137.32 -0.69,-140.67 380.97 80
2 11/06/2022 06:31:20 0.04,-137.32 0.39,-135.67 187.89 80
3 11/07/2022 18:50:13 -0.04,-137.32 0.59,-140.24 332.05 80
4 11/08/2022 18:32:14 -0.04,-137.31 -0.49,-135.24 236.51 80
5 11/10/2022 06:51:14 0.03,-137.30 -0.55,-139.83 288.56 80
6 11/11/2022 06:27:56 0.03,-137.29 0.60,-134.84 279.57 80
7 11/12/2022 18:46:48 -0.03,-137.27 0.45,-139.39 241.76 80
8 11/13/2022 18:28:48 -0.02,-137.26 -0.64,-134.39 326.07 80
9 11/15/2022 06:47:49 0.02,-137.23 -0.37,-138.99 199.82 80
10 11/16/2022 06:24:29 0.01,-137.22 0.73,-133.99 367.71 80
11 11/17/2022 18:43:22 -0.01,-137.20 0.32,-138.55 154.64 80
12 11/18/2022 18:25:23 -0.01,-137.18 -0.83,-133.56 412.70 80
